STARLINK-37137, 68384

Orbit data source: Space-Track

STARLINK-37137, 68384 is a payload satellite owned by SpaceX/Seattle (US) in SSO that was launched on Thu, 26 Mar 2026 UTC via an FALCON 9 launch vehicle from the Air Force Western Test Range (AFWTR). Payload-class satellites include a variety of spacecraft equipped with specific instruments for various scientific and technological missions. These include communications satellites like Starlink; space stations such as the ISS; scientific satellites like the Hubble; Earth observation satellites from companies like Planet Labs, Umbra, and HawkEye 360; GPS; miniature CubeSats for education and research; and military/defense satellites.

Loading next visibility...
Identifier
68384, 2026-063E
Orbit
SSO
Country
Flag of USUS
Related business
Manufacturer
SpaceX/Seattle
Mission
Operational spacecraft
Bus & Motor
STARLINK V2MO, Unknown motor
Mass
575 kg wet, ~530 kg dry
Launch date (UTC)
2026-03-26 (2 weeks ago)
Launch vehicle
FALCON 9
Launch site
Air Force Western Test Range (AFWTR)
Object type
Payload
Rocket body
Debris
Shape & HBR
Unknown shape, 17.7 m
Radar Cross Section
RCS unknown

Expand to show TLE details & history
Last TLE update: 8 hours ago

TLE from 8 hours ago
0 STARLINK-37137
1 68384U 26063E   26102.25002315 -.00101662  00000-0 -68800-3 0  9998
2 68384  97.2842 243.6261 0001531  94.2580 155.4349 15.75217587  3850
Epoch: 2026-04-12T06:00Z
TLE epoch observation values (Epoch: 2026-04-12T06:00:02.000Z)
Latitude
-68.65207°
Longitude
114.18191°
Altitude
370.781 km
Speed
7.685 km/s
True Right ascension
02h 58m 35s
True Declination
-68° 31' 42"
Sunlit
Object was in daylight at epoch
Visualization orbit readout
Latitude
Unknown
Longitude
Unknown
Altitude
Unknown
Speed
Unknown
Apparent Right ascension
Unknown
Apparent Declination
Unknown
Sunlit
N/A
Visualization observer readout
Local Sidereal Time
20:18:28
Azimuth
Unknown
Elevation
Unknown
Doppler factor
Unknown
Orbital elements
Apogee altitude
341.928 km
Perigee altitude
339.871 km
Semi-major axis
6,719.036 km
Eccentricity
0.00015
Inclination
97.2842°
RAAN
243.6261°
Arg. of periapsis
94.258°
True anomaly
155.44219°
Mean anomaly
155.4349°
Eccentric anomaly
155.43855°
Mean motion
3.94078 °/min
Orbital period
91.35 mins
BSTAR
-0.000688
Loading maneuver chart data...
Computing Atmospheric mass density...
Loading historical data...
Loading historical data...
Loading historical data...
Loading historical data...
Loading historical data...
Loading historical data...
Loading historical data...

Documentation

Showing up to 5 results
|